SL-16 DEB, 22613

Orbit data source: Space-Track

SL-16 DEB, 22613 is space debris in LEO originally from a launch on Fri, 26 Mar 1993 UTC launched from the Tyuratam Missile And Space Complex (TTMTR). Debris objects in space refer to the collection of defunct objects orbiting the Earth. Examples of debris include non-operational satellites, rocket bodies, and fragments generated from explosions, collisions, or faulty payload assembly.

Loading next visibility...
Identifier
22613, 1993-016X
Orbit
LEO
Country
Flag of CISCIS
Related business
Manufacturer
Unknown
Mission
Spacecraft
Bus & Motor
Unknown
Mass
Unknown
Launch date (UTC)
1993-03-26 (33 years ago)
Launch vehicle
Unknown
Launch site
Tyuratam Missile And Space Complex (TTMTR)
Object type
Payload
Rocket body
Debris
Shape & HBR
Unknown shape, 0.1 m
Radar Cross Section
Medium (>0.1 m² and <1 m²)

Expand to show TLE details & history
Last TLE update: 5 hours ago

TLE from 5 hours ago
0 SL-16 DEB
1 22613U 93016X   26256.78835301  .00000284  00000-0  28478-3 0  9995
2 22613  70.9982  87.6819 0192693  38.2926 334.7092 13.77673267677175
Epoch: 2026-09-13T18:55Z
TLE epoch observation values (Epoch: 2026-09-13T18:55:13.700Z)
Latitude
11.33663°
Longitude
175.03463°
Altitude
846.186 km
Speed
7.495 km/s
True Right ascension
06h 06m 28s
True Declination
11° 16' 17"
Sunlit
Object was in daylight at epoch
Visualization orbit readout
Latitude
Unknown
Longitude
Unknown
Altitude
Unknown
Speed
Unknown
Apparent Right ascension
Unknown
Apparent Declination
Unknown
Sunlit
N/A
Visualization observer readout
Local Sidereal Time
16:29:44
Azimuth
Unknown
Elevation
Unknown
Doppler factor
Unknown
Orbital elements
Apogee altitude
1,111.707 km
Perigee altitude
828.516 km
Semi-major axis
7,348.249 km
Eccentricity
0.01927
Inclination
70.9982°
RAAN
87.6819°
Arg. of periapsis
38.2926°
True anomaly
333.74494°
Mean anomaly
334.7092°
Eccentric anomaly
334.22919°
Mean motion
3.44562 °/min
Orbital period
104.48 mins
BSTAR
0.00028478
Loading maneuver chart data...
Computing Atmospheric mass density...
Loading historical data...
Loading historical data...
Loading historical data...
Loading historical data...
Loading historical data...
Loading historical data...
Loading historical data...

Documentation

Showing up to 5 results
|